Theta_e
305 305 306 307 309 312 314 316 314 314 314 312 310 311 310 310 311 311 311 312 312 314 315 315 316 316 314 314 314 312 310 308 307 305 305 306 307 307 307 307 306 306 308
304 304 306 307 308 310 311 309 307 307 307 308 309 309 308 309 308 310 311 312 311 311 311 313 313 313 312 313 313 310 308 307 308 304 304 300 303 304 305 306 305 305 306
305 304 305 307 307 307 306 306 306 307 308 308 309 309 310 310 309 309 309 310 310 310 310 310 311 311 311 310 312 311 309 307 307 306 303 299 297 302 303 304 303 303 301
304 305 305 305 306 306 308 309 309 309 309 309 308 307 305 304 306 306 307 308 309 309 308 308 309 310 310 309 309 309 308 307 304 304 303 303 300 298 297 299 300 301 299
302 303 304 305 305 307 307 308 309 308 308 308 306 305 305 305 305 305 305 306 307 307 306 305 306 307 308 307 306 306 305 304 304 301 300 299 298 299 295 294 296 296 298
302 302 305 306 306 308 308 309 308 308 309 308 305 305 304 303 303 304 303 304 304 304 302 302 303 303 302 301 301 301 300 300 299 299 298 297 294 294 294 291 291 292 296
303 303 304 305 306 306 307 307 307 307 307 307 304 303 303 304 303 303 302 301 300 301 299 300 301 301 301 301 301 299 297 295 293 292 292 291 290 290 290 289 290 290 294
303 303 303 305 305 306 306 307 306 306 307 306 304 303 304 303 302 301 301 299 298 299 300 301 301 301 302 301 299 296 295 293 292 291 291 291 291 292 291 290 289 288 290
302 303 304 305 306 306 306 306 305 305 305 305 303 302 302 302 301 301 299 297 298 299 300 302 301 300 300 298 297 296 293 293 293 293 293 292 292 294 294 293 292 288 284
303 304 305 306 306 307 306 306 307 305 305 305 302 301 301 301 300 298 296 296 298 300 300 300 298 298 298 298 297 297 297 295 295 294 294 293 293 294 293 292 292 291 288
303 304 305 306 306 306 306 306 305 304 304 303 301 301 300 299 296 294 295 296 298 298 296 295 295 295 294 295 295 295 294 294 293 293 292 292 292 291 291 291 291 289 289
303 304 304 305 305 305 305 305 305 304 302 300 300 299 297 294 293 293 294 295 294 295 295 296 295 293 294 293 292 291 291 290 289 290 290 289 289 289 290 289 289 289 289
303 304 304 303 304 303 303 303 303 302 300 300 299 296 293 292 292 295 296 296 296 296 295 294 293 291 290 289 289 288 288 288 288 288 288 287 287 286 287 287 286 287 286
302 303 302 302 301 301 301 301 300 300 299 298 297 295 293 292 295 296 296 296 296 295 295 293 291 289 288 287 287 287 287 287 287 287 287 286 285 285 285 284 285 285 285
301 300 298 297 298 299 299 299 299 298 298 298 297 296 295 295 295 295 294 295 294 294 295 292 288 287 286 286 287 287 287 286 286 286 285 285 285 284 284 284 284 285 284
297 296 296 296 297 298 296 296 296 296 296 295 294 292 292 292 293 293 294 294 292 288 287 286 285 285 285 284 285 285 285 284 283 283 283 284 284 284 283 283 283 284 282
294 293 294 296 297 296 295 295 294 294 292 292 291 291 292 292 291 289 288 287 286 286 285 285 285 285 285 283 283 283 283 283 283 282 282 282 283 283 284 283 282 282 283
292 294 295 297 296 295 295 292 291 291 290 290 291 292 289 287 287 287 286 285 285 285 284 284 285 284 283 282 282 282 283 283 282 282 283 282 282 283 281 282 282 283 284
295 295 298 296 294 294 294 289 289 289 290 289 288 287 287 286 286 285 284 284 284 284 284 284 283 282 282 281 281 282 282 282 281 282 283 283 282 282 283 282 282 282 283
295 296 296 294 293 295 295 291 290 290 287 287 287 287 286 285 284 284 284 284 284 283 283 282 282 281 281 281 281 281 281 280 280 282 283 282 282 282 282 282 281 280 281
294 297 294 292 293 294 294 291 288 286 288 288 286 286 285 285 285 284 284 283 283 282 281 281 281 281 281 281 280 280 281 280 280 281 282 283 282 281 281 281 281 280 281
294 295 292 292 293 294 291 288 288 290 290 287 286 285 285 284 283 283 283 283 282 281 281 280 281 281 281 280 279 280 280 280 280 280 282 283 280 280 279 279 279 280 280
294 293 291 291 293 293 292 289 291 291 290 286 285 285 285 284 284 283 283 282 282 281 280 279 279 279 280 280 279 279 280 280 280 282 281 280 279 278 278 278 278 279 280
292 292 291 290 291 293 291 291 290 288 287 285 285 285 284 284 284 284 283 282 281 280 279 278 277 278 278 278 279 280 280 280 281 280 280 278 278 277 278 278 279 279 279
291 291 290 290 291 292 290 290 288 287 285 285 284 284 284 283 282 282 282 282 282 280 279 278 278 276 276 277 279 279 278 279 278 279 278 276 276 276 277 277 277 278 278
290 289 290 289 287 287 286 286 286 286 285 284 284 284 283 283 281 281 281 281 279 279 279 279 278 278 277 278 278 278 278 277 277 276 274 273 274 274 275 275 275 277 276
Wind_Speed
4 3 3 1 4 5 7 8 7 2 2 2 2 2 3 4 3 4 6 8 9 10 10 10 11 10 10 13 11 10 12 9 8 5 8 9 9 9 8 7 5 4 3
3 3 2 2 2 3 1 5 6 6 4 2 1 2 3 4 5 6 8 8 9 9 8 10 11 12 11 14 14 13 10 8 9 9 8 7 7 7 8 8 6 5 4
5 3 4 6 9 9 8 6 6 5 5 5 3 3 2 3 4 8 9 11 12 11 10 11 10 12 11 11 14 14 16 12 9 13 9 6 10 4 5 10 7 7 4
7 9 8 10 9 7 7 8 9 9 8 7 5 6 5 6 6 7 8 10 11 11 11 10 10 11 10 12 12 11 12 12 12 6 9 5 4 9 9 5 6 6 5
7 9 9 8 10 9 8 7 8 9 7 5 5 4 5 4 6 8 12 12 11 11 10 9 10 9 7 9 8 8 7 7 10 8 4 5 3 3 7 10 6 4 4
7 6 7 8 8 6 6 5 6 6 6 6 6 6 6 8 9 12 11 11 10 10 9 7 4 4 5 7 8 9 10 7 6 5 5 3 2 2 2 2 4 8 9
8 8 8 7 7 8 8 6 8 9 10 8 8 9 10 10 12 14 11 14 11 9 5 3 5 7 10 9 8 9 8 7 6 7 4 4 4 2 1 2 4 6 8
6 6 3 1 4 5 7 9 10 9 9 10 10 9 10 8 10 11 10 10 9 4 4 6 7 6 5 6 7 5 5 5 3 1 1 2 2 3 4 4 3 7 9
4 2 3 5 6 9 9 9 11 11 9 8 6 8 8 11 12 13 12 8 4 4 5 3 1 1 3 3 3 3 7 7 7 7 8 7 6 8 7 8 7 7 11
6 7 8 9 7 8 7 7 7 8 8 9 6 7 11 12 12 12 12 7 4 5 1 3 2 1 1 1 3 3 4 5 5 6 9 9 8 9 8 10 8 8 11
7 9 10 11 10 7 8 8 7 8 8 7 7 10 11 11 11 9 7 1 2 3 3 3 6 10 11 8 5 5 4 5 6 7 7 9 9 7 7 7 7 9 9
9 10 10 10 9 8 11 11 10 9 8 6 8 8 9 9 7 5 5 4 4 4 4 7 9 9 10 7 6 5 5 6 7 7 8 9 7 9 8 7 9 9 10
12 11 9 10 10 12 12 11 11 9 7 10 9 7 7 6 6 6 6 6 6 6 8 9 9 10 10 8 7 6 7 8 8 8 8 7 7 9 8 10 10 11 10
11 10 9 10 9 8 8 9 9 8 9 7 5 4 4 4 4 5 6 6 6 7 8 7 4 4 7 7 7 8 8 8 7 8 9 10 11 12 12 12 13 12 12
11 9 8 8 8 9 10 10 11 10 8 5 4 4 3 4 4 7 7 6 6 7 6 6 5 5 5 5 8 9 10 11 12 12 12 12 14 18 17 12 13 14 12
5 8 9 9 9 10 11 11 10 7 4 3 5 5 5 5 4 6 9 9 9 8 6 6 6 7 5 9 12 12 11 13 14 13 13 13 16 15 16 18 19 17 14
7 9 8 9 11 11 12 12 9 5 2 2 1 4 6 8 8 7 7 8 7 7 7 7 7 7 7 11 15 16 12 12 12 13 13 13 11 14 13 14 17 17 20
7 11 9 10 10 11 10 6 2 3 2 4 6 8 7 7 7 7 8 7 6 7 8 7 6 8 9 13 16 17 12 11 12 14 14 13 13 12 13 13 14 15 15
11 10 9 8 10 9 6 5 6 4 5 5 6 5 5 7 7 7 8 7 7 7 6 7 9 10 10 15 16 14 12 12 13 12 12 13 14 16 19 15 16 16 16
11 10 8 8 8 8 6 8 9 6 4 5 5 6 6 6 6 6 7 6 7 7 6 8 9 10 10 14 15 15 10 11 10 12 13 15 15 18 18 13 13 14 14
13 9 6 7 8 8 8 8 5 5 4 5 4 5 5 5 5 6 5 6 8 6 7 8 8 8 10 11 16 18 10 9 11 10 10 9 12 12 16 16 11 12 14
14 9 8 8 8 8 7 6 7 7 5 4 4 5 5 4 4 6 6 7 7 7 8 9 8 8 8 12 16 18 17 16 11 11 9 8 8 13 14 11 13 16 12
12 8 9 9 8 7 6 8 10 6 6 5 5 5 5 5 5 7 8 7 7 7 8 8 10 10 9 9 17 18 16 17 12 9 8 11 12 12 9 12 13 10 6
11 10 10 11 10 8 7 9 9 6 5 6 5 4 4 6 6 5 5 6 7 7 8 9 9 10 10 10 11 10 11 14 9 9 4 6 8 7 7 8 8 7 7
11 11 11 11 11 10 10 8 8 5 7 6 4 3 3 4 5 5 5 6 5 6 8 8 9 10 10 11 16 14 11 8 8 6 4 5 6 7 8 8 7 7 7
12 12 12 9 10 8 8 7 5 4 5 5 3 2 3 3 4 5 6 5 6 9 10 12 8 8 14 18 17 19 17 15 12 4 5 5 6 7 8 9 8 8 9
Wind_Direction
18 356 4 139 160 166 175 193 196 217 299 342 343 317 334 323 295 291 293 284 277 273 266 265 267 256 249 248 241 239 239 228 227 240 245 253 242 233 227 215 226 209 205
84 31 43 43 154 141 81 32 29 23 8 350 334 313 309 298 305 317 311 305 296 295 278 269 271 266 260 251 243 233 235 242 211 223 247 255 226 223 223 209 209 220 198
118 128 67 51 34 35 19 17 24 23 34 22 352 330 281 292 320 335 326 330 322 313 300 288 278 276 267 261 252 242 237 242 222 223 232 236 246 251 188 210 209 202 204
11 16 16 29 24 32 42 63 71 58 41 29 23 13 349 334 337 323 316 315 317 318 315 306 295 284 278 269 269 263 255 244 248 223 232 243 266 242 242 188 207 206 212
25 37 54 63 64 58 58 53 53 41 29 24 25 20 13 350 335 327 324 318 313 314 310 305 298 288 283 282 277 268 266 270 257 241 206 204 185 185 255 249 213 228 267
16 51 72 72 59 44 44 40 30 26 18 17 19 19 8 358 336 335 331 328 323 321 321 325 354 51 77 79 72 65 54 46 44 44 22 335 268 165 253 276 282 279 284
44 65 67 54 28 18 15 5 356 0 5 8 3 356 357 342 338 334 322 316 314 310 333 39 88 99 100 91 82 64 60 55 49 31 27 19 29 15 252 223 258 274 287
54 63 80 1 358 357 5 3 0 345 351 355 360 346 339 335 322 314 306 304 304 290 152 124 114 120 115 112 107 113 98 77 79 54 261 262 241 240 237 235 258 286 279
40 38 298 292 328 2 6 358 356 341 336 338 326 318 322 317 309 309 303 300 274 177 157 125 90 288 167 170 167 153 158 174 193 195 205 215 219 223 234 246 238 247 280
333 327 324 326 333 342 341 334 329 316 316 319 307 309 316 320 317 315 313 306 204 180 210 314 313 9 39 235 246 234 215 210 226 228 233 236 237 240 237 240 237 242 260
317 307 313 317 311 301 310 309 303 309 318 328 327 327 323 328 328 324 330 23 102 294 307 12 38 12 356 325 302 285 267 244 250 241 245 251 258 259 257 268 271 269 266
301 304 306 320 323 319 330 336 331 336 343 326 318 323 334 341 344 3 35 32 18 33 44 40 24 326 310 332 341 331 321 304 297 294 291 288 292 290 290 286 279 276 275
315 323 333 342 345 349 345 337 341 337 329 329 332 350 1 9 27 32 23 33 25 27 27 20 1 350 343 334 335 327 314 302 301 300 295 295 293 289 284 280 278 274 271
304 331 340 349 340 324 329 345 337 332 329 328 335 356 11 62 38 355 347 348 349 344 351 351 294 289 291 302 321 321 311 305 301 296 291 291 288 287 287 282 277 276 273
336 349 346 316 320 338 328 331 330 329 332 333 336 337 319 324 358 2 352 332 323 322 328 328 341 340 328 347 340 328 315 308 302 299 296 293 292 289 283 282 278 276 270
347 329 333 335 324 328 330 323 322 326 323 19 53 46 23 333 310 307 326 333 343 353 359 351 344 339 340 347 340 329 313 303 299 298 297 293 290 283 280 274 270 271 276
355 323 307 312 321 332 330 326 327 332 95 76 334 323 325 331 338 340 342 346 346 341 339 340 338 338 334 334 327 320 305 302 300 298 294 294 290 287 286 285 280 270 265
298 287 311 323 328 328 330 316 214 213 248 294 325 331 343 351 349 343 338 337 336 336 331 329 340 329 326 326 322 318 304 301 300 293 292 292 294 293 288 283 279 274 269
280 310 323 318 324 324 314 253 281 298 288 328 334 335 346 341 340 340 336 332 327 325 327 332 329 323 323 327 324 320 313 304 300 296 293 289 292 288 290 287 280 279 275
294 309 312 314 310 314 304 287 290 300 307 307 327 345 342 337 337 332 325 323 317 316 325 326 323 319 316 321 324 323 313 305 306 301 295 287 283 288 288 293 293 289 288
304 299 285 296 301 309 313 303 283 258 264 290 328 331 327 323 322 315 313 317 320 311 314 312 312 307 319 320 323 327 318 312 306 304 306 300 296 312 308 305 293 292 298
314 298 294 299 302 304 305 284 272 269 274 283 297 298 306 317 308 303 308 318 320 312 316 319 319 332 325 321 324 324 322 314 310 304 299 307 337 327 321 312 319 315 304
309 294 291 293 287 289 266 273 278 288 255 245 266 283 310 309 304 304 313 315 324 321 326 328 331 333 334 331 327 317 314 322 312 307 348 350 337 331 324 337 333 330 327
314 309 298 290 285 293 292 274 286 275 234 245 260 292 307 319 314 310 315 316 326 330 331 329 331 333 331 336 331 334 331 324 321 325 349 342 335 332 335 348 354 344 338
321 317 304 296 296 312 303 304 296 237 242 252 262 282 312 317 322 328 323 326 333 331 334 336 335 335 334 336 336 343 334 341 341 341 358 359 359 4 4 358 -0 352 348
325 321 312 310 309 311 315 329 337 300 271 273 269 278 301 321 325 333 333 345 339 349 353 351 351 339 337 338 350 350 348 4 355 7 11 7 4 9 358 1 359 -0 357